Find Kosmos-272

NORAD ID: 3818 Int'l Des: 1969-024 Owner: OKB10 Country: SU operational
LEOCIRCULAR

Live Position

Loading 3D Globe...

About Kosmos-272

Description loading...

Upcoming Passes

Passes for default location (London). Set your location on the main map for personalized predictions.

Altitude History

Loading altitude history...

Two-Line Element Set

1 03818U 69024A 26106.92022413 -.00000131 00000-0 -28591-3 0 9994
2 03818 73.9935 348.7066 0019416 197.6405 173.2830 13.17947815745786
Epoch: Apr 16, 2026 • Age: 14 hours

Current Status

Altitude 1209.8 km
Velocity 7.24 km/s
Sub-Earth Point -8.41°S, 48.67°W
Type other

Most Searched